Regional Weather Roundup
Issued by NWS

Home | Current Version | Previous Version | Text Only | Print | Product List | Glossary Off
Versions: 1 2 3 4 5 6 7 8 9 10 11 12 13 14 15 16 17 18 19 20 21 22 23 24 25 26 27 28 29 30 31 32 33 34 35 36 37 38 39 40 41 42 43 44 45 46 47 48 49 50

000
ASUS43 KMKX 240721
RWRWI

WISCONSIN REGIONAL WEATHER ROUNDUP
NATIONAL WEATHER SERVICE MILWAUKEE/SULLIVAN WI
100 AM CST FRI NOV 24 2017

NOTE: "FAIR" INDICATES FEW OR NO CLOUDS BELOW 12,000 FEET WITH NO
SIGNIFICANT WEATHER AND/OR OBSTRUCTIONS TO VISIBILITY.

WIZ001-002-006>008-014>016-023>028-240800-
NORTHWEST WISCONSIN

CITY           SKY/WX    TMP DP  RH WIND       PRES   REMARKS
SUPERIOR ARPT  PTCLDY    40  31  71 SW10      29.41F WCI  33
ASHLAND        CLOUDY    43  28  55 SW21G26   29.44F
HAYWARD        CLOUDY    43  29  57 S13       29.50F
SIREN          CLOUDY    45  32  60 S9        29.49F
CUMBERLAND     CLOUDY    37  30  75 S7        29.54F WCI  32
RICE LAKE      CLOUDY    38  29  69 SE6       29.57F WCI  34
CHETEK         CLOUDY    39  28  66 SE5       29.56F
LADYSMITH      CLOUDY    39  28  63 S8        29.57F WCI  34
EAU CLAIRE     CLOUDY    37  27  67 S7        29.57F WCI  32
MENOMONIE      CLOUDY    44  31  60 S6        29.56F
NEW RICHMOND   PTCLDY    44  31  61 S13       29.53F
OSCEOLA        CLOUDY    44  32  63 S8        29.55F
$$

WIZ003>005-009-010-017-018-240800-
NORTH CENTRAL WISCONSIN

CITY           SKY/WX    TMP DP  RH WIND       PRES   REMARKS
MANITOWISH WTR CLOUDY    38  27  64 SW14G20   29.51F WCI  30
ARBOR VITAE    CLOUDY    37  27  67 S12       29.54F WCI  29
WOODRUFF       CLOUDY    37  27  67 S12       29.54F WCI  29
RHINELANDER    CLOUDY    37  25  61 SW14G21   29.58F WCI  28
EAGLE RIVER    CLOUDY    38  24  57 SW9G16    29.53F WCI  32
LAND O LAKES   CLOUDY    37  25  63 S7        29.54F WCI  31
PHILLIPS       CLOUDY    39  28  64 SW8G17    29.54F WCI  34
TOMAHAWK       CLOUDY    35  25  67 CALM      29.59F
MEDFORD        PTCLDY    36  26  66 S9        29.60F WCI  29
MERRILL        CLOUDY    37  26  64 SW8       29.61F WCI  31
$$

WIZ029-030-035-036-043>047-240800-
CENTRAL WISCONSIN

CITY           SKY/WX    TMP DP  RH WIND       PRES   REMARKS
WAUSAU         CLOUDY    36  25  64 S9        29.63F WCI  29
MOSINEE        CLOUDY    34  27  75 S10       29.66F WCI  26
MARSHFIELD     CLOUDY    36  24  62 S9        29.63F WCI  29
STEVENS POINT  CLEAR     32  23  70 SW7       29.67F WCI  26
WAUPACA        CLEAR     35  25  66 S5        29.70F WCI  31
WAUTOMA        CLEAR     32  24  72 S5        29.72F WCI  27
WISC RAPIDS    MOCLDY    36  25  64 SW6       29.69F WCI  31
CAMP DOUGLAS   PTCLDY    42  28  57 S5        29.68F
$$

WIZ011>013-019>022-031-037>040-048>050-240800-
NORTHEAST WISCONSIN

CITY           SKY/WX    TMP DP  RH WIND       PRES   REMARKS
ANTIGO         CLOUDY    35  25  68 SW10      29.64F WCI  27
SHAWANO        CLOUDY    38  25  60 SW5       29.67S WCI  34
OCONTO         CLOUDY    36  26  65 S6        29.66F WCI  31
STURGEON BAY   CLOUDY    36  25  64 S13       29.70F WCI  27
GREEN BAY      CLOUDY    37  28  70 S8        29.70F WCI  31
MANITOWOC      PTCLDY    34  25  69 S8        29.74F WCI  27
APPLETON       CLOUDY    34  23  64 S10       29.69F WCI  26
CLINTONVILLE   CLOUDY    36  25  64 S8        29.68F WCI  29
OSHKOSH        CLOUDY    35  26  69 S8        29.72F WCI  29
$$

WIZ032>034-041-042-053>061-240800-
SOUTHWEST WISCONSIN

CITY           SKY/WX    TMP DP  RH WIND       PRES   REMARKS
LA CROSSE      MOCLDY    41  29  62 SE12      29.67F
SPARTA         CLOUDY    42  30  62 S5        29.68F
VIROQUA        MOCLDY    40  31  69 S15       29.68F WCI  32
BOSCOBEL       PTCLDY    27  23  85 CALM      29.75F
PRAIRIE DU CHI MOCLDY    40  28  64 W3        29.74F
PLATTEVILLE    CLEAR     35  30  81 S9        29.78F WCI  28
$$

WIZ056-057-062-063-064-067-068-240800-
SOUTH CENTRAL WISCONSIN

CITY           SKY/WX    TMP DP  RH WIND       PRES   REMARKS
REEDSBURG      CLEAR     37  28  69 S7        29.72F WCI  32
BARABOO/DELLS  CLEAR     39  27  62 SW15      29.72F WCI  31
LONE ROCK      NOT AVBL
MINERAL POINT  CLOUDY    36  30  80 S8        29.76F WCI  29
MADISON        CLOUDY    36  27  69 S8        29.76F WCI  30
MIDDLETON      CLOUDY    38  28  67 SW7       29.76F WCI  33
WATERTOWN      CLEAR     32  28  83 S5        29.78F WCI  27
MONROE         CLEAR     34  28  80 S14       29.77F WCI  24
JANESVILLE     CLOUDY    34  28  80 SW8       29.79F WCI  27
$$

WIZ051-052-058>065-066-070>072-240800-
SOUTHEAST WISCONSIN

CITY           SKY/WX    TMP DP  RH WIND       PRES   REMARKS
MILWAUKEE      CLEAR     35  26  69 SW8       29.80F WCI  29
WAUKESHA       CLEAR     32  25  74 S6        29.79F WCI  26
MILWAUKEE/TIMM CLEAR     34  23  64 SW6       29.80F WCI  29
RACINE         CLEAR     36  26  67 SW10      29.83F WCI  28
BURLINGTON     CLEAR     31  29  92 S5        29.80F WCI  27
KENOSHA        CLEAR     34  25  69 SW8       29.81F WCI  27
FOND DU LAC    PTCLDY    38  25  59 S13       29.73F WCI  30
SHEBOYGAN      MOCLDY    34  27  75 S9        29.75F WCI  27
WEST BEND      CLEAR     34  28  80 SW7       29.76F WCI  28
JUNEAU         CLEAR     33  26  76 S8        29.77F WCI  26
$$

LSZ147-162-240800-
LAKE SUPERIOR

STATION/POSITION TIME  TEMP    WIND        PRES    WAVE
                       AIR SEA DIR/SP/G            HT/PER
                 (UTC) (F)     (DEG/KT/KT) (MB)    (FT/S)
DEVILS ISLAND    0700   40     200/  8/ 10  995.9F
SAXON HARBOR     0701   47     200/ 14/ 25  995.6
$$

LMZ867-665-643>646-240800-
LAKE MICHIGAN

STATION/POSITION TIME  TEMP    WIND        PRES    WAVE
                       AIR SEA DIR/SP/G            HT/PER
                 (UTC) (F)     (DEG/KT/KT) (MB)    (FT/S)
N MID LAKE BUOY  0650   44 47  200/ 23/ 27 1006.1F   5/ 5
NORTHPORT PIER   0640   38     170/  2/ 13 1005.4F
KEWAUNEE LAKESHO 0654   36     190/  8/ 10 1006.0F
SHEBOYGAN LAKESH 0700   37     200/ 10/ 11 1008.1F
PORT WASHINGTON  0630   35     230/  6/ 10 1009.8F
MILWAUKEE LAKESH 0700   38     210/  9/  9   N/A
S MID LAKE BUOY  0650   44 47  240/ 16/ 17 1010.6F   2/ 4
KENOSHA   LAKESH 0700   38     200/  7/ 10 1009.8
$$

TC  - TEMPERATURE IN CELSIUS
VSB - VISIBILITY IN STATUTE MILES
WCI - WIND CHILL INDEX
HX  - HEAT INDEX





USA.gov is the U.S. government's official web portal to all federal, state and local government web resources and services.